Regional Weather Roundup
Issued by NWS Boston, MA

Current Version | Previous Version | Text Only | Print | Product List | Glossary Off
Versions: 1 2 3 4 5 6 7 8 9 10 11 12 13 14 15 16 17 18 19 20 21 22 23 24 25 26 27 28

000
ASUS41 KBOX 232310
RWRBOX

REGIONAL WEATHER ROUNDUP
NATIONAL WEATHER SERVICE TAUNTON MA
600 PM EST FRI FEB 23 2018

NOTE:  "FAIR" INDICATES FEW OR NO CLOUDS BELOW 12,000 FEET WITH NO
SIGNIFICANT WEATHER AND/OR OBSTRUCTIONS TO VISIBILITY.

MAZALL-240000-
EASTERN MASSACHUSETTS

CITY           SKY/WX    TMP DP  RH WIND       PRES   REMARKS
BOSTON         LGT RAIN  38  33  82 S14       30.35F WCI  30
BEVERLY        LGT RAIN  38  34  85 S8        30.34F
LAWRENCE       LGT RAIN  38  34  85 S6        30.35F
BEDFORD        LGT RAIN  37  34  89 S7        30.32F WCI  32
BLUE HILL        N/A    N/A N/A N/A S14G20    30.31F
NORWOOD        LGT RAIN  38  34  85 S8        30.35F FOG
MARSHFIELD     CLOUDY    39  36  87 S8        30.35F
PLYMOUTH       LGT RAIN  38  34  85 CALM      30.36F
TAUNTON        LGT RAIN  37  35  92 S3        30.36F FOG
NEW BEDFORD    LGT RAIN  37  36  96 SE8       30.35F WCI  31
$$

MAZALL-240000-
CAPE COD AND THE ISLANDS

CITY           SKY/WX    TMP DP  RH WIND       PRES   REMARKS
FALMOUTH       CLOUDY    36  34  93 SE14      30.34  WCI  27
HYANNIS        LGT RAIN  38  34  85 SE9       30.33F WCI  31
CHATHAM        LGT RAIN  39  33  79 SE7       30.38F
PROVINCETOWN   LGT RAIN  37  33  85 SE8       30.35F WCI  31
NANTUCKET      LGT RAIN  38  36  92 E16       30.35F WCI  29
MARTHAS VNYRD  LGT RAIN  37  35  92 SE9       30.33F WCI  30
$$

MAZALL-240000-
CENTRAL AND WESTERN MASSACHUSETTS

CITY           SKY/WX    TMP DP  RH WIND       PRES   REMARKS
WORCESTER      LGT RAIN  32  31  96 MISG      30.28F
FITCHBURG      LGT RAIN  38  35  89 SE6       30.32F
ORANGE         LGT RAIN  33  33 100 S6        30.29F WCI  28
SPRINGFIELD    LGT RAIN  35  33  96 S7        30.28F WCI  29
WESTFIELD      LGT RAIN  33  33 100 S6        30.30F FOG     WCI  28
NORTH ADAMS    LGT RAIN  36  31  82 E12G21    30.24F WCI  28
PITTSFIELD     LGT RAIN  34  30  85 VRB3      30.23F FOG
$$

RIZALL-240000-
RHODE ISLAND

CITY           SKY/WX    TMP DP  RH WIND       PRES   REMARKS
PROVIDENCE     RAIN      37  35  92 SE8       30.36F FOG     WCI  31
NEWPORT        MIX PCPN  36  35  96 SE7       30.35F WCI  30
BLOCK ISLAND   LGT RAIN  37  37 100 E8        30.34F FOG     WCI  31
SMITHFIELD     RAIN      34  32  92 MISG      30.32F FOG
WESTERLY       LGT RAIN  38  37  97 E7        30.34F FOG
$$

CTZALL-240000-
CONNECTICUT

CITY           SKY/WX    TMP DP  RH WIND       PRES   REMARKS
BRADLEY INTL   LGT RAIN  36  35  96 S9        30.31F FOG     WCI  29
HARTFORD       LGT RAIN  37  36  96 S3        30.32F
BRIDGEPORT     LGT RAIN  37  36  96 E6        30.34F FOG
DANBURY        RAIN      36  34  92 CALM      30.35F FOG
GROTON         LGT RAIN  38  35  89 SE8       30.35F FOG
NEW HAVEN      LGT RAIN  38  35  89 SE5       30.33F FOG
CHESTER        CLOUDY    36  36 100 SE6       30.32F FOG     WCI  31
MERIDEN        LGT RAIN  36  35  96 S6        30.33F WCI  31
WILLIMANTIC    LGT RAIN  37  35  92 S3        30.34F
OXFORD         LGT RAIN  34  33  96 S7        30.31F VSB 1   WCI  28
$$

MEZ002-015-021-024-NHZ003-005-008-011-012-014-VTZ005-008-240000-
NORTHERN NEW ENGLAND

CITY           SKY/WX    TMP DP  RH WIND       PRES   REMARKS
PORTLAND ME    LGTSLEET  35  32  88 S10G20    30.31F FOG     WCI  27
BANGOR ME      LGTSLEET  30  21  69 S10       30.32F WCI  21
CONCORD NH     LGT RAIN  33  30  88 SE5       30.31F WCI  29
MANCHESTER NH  LGT RAIN  35  32  88 SE7       30.31F WCI  29
NASHUA NH      RAIN      35  35 100 SE3       30.33F FOG
PORTSMOUTH NH  LGT RAIN  35  33  92 S10       30.32  WCI  28
JAFFREY NH     LGT RAIN  33  33 100 S8        30.26F WCI  26
KEENE NH       NOT AVBL
BURLINGTON VT  MIX PCPN  34  31  88 S22G32    30.11F WCI  22
MT. WASHINGTON FRZ RAIN  25  25 100 SW53G70     N/A  VSB 1/16WCI   4
$$

NYZ052-076-240000-
EASTERN NEW YORK

CITY           SKY/WX    TMP DP  RH WIND       PRES   REMARKS
ALBANY         LGT RAIN  35  30  82 S18G28    30.23F WCI  24
NEW YORK CITY  LGT RAIN  40  38  93 NE6       30.35F VSB 1/2
$$

ANZALL-240000-
MARINE OBSERVATIONS

STATION/POSITION TIME  TEMP    WIND        PRES    VSBY  WAVE
                       AIR SEA DIR/SP/G                  HT/PER
                 (UTC) (F)     (DEG/KT/KT) (MB)    (MI)  (FT/S)
BOSTON BUOY      2250   38 40  140/ 16/ 17 1026.7F         3/ 4
BUZZARDS BAY     2200   36     120/ 17/ 19 1029.2F
NANTUCKET SOUND  2150   37 39  110/ 14/ 16 1029.9          2/ 4
MASS BAY-STELLWA 2204   37 40              1028.1F         3/ 5
ISLE OF SHOALS   2300   36     160/ 22/ 23 1027.0F
S OF BLOCK IS    2243      41                N/A           4/ 5
$$

......................KEY.........................
  SKY/WX - SKY CONDITION/PRESENT WEATHER
  TMP    - TEMPERATURE IN FAHRENHEIT
  DWPT   - DEWPOINT IN FAHRENHEIT
  RH     - RELATIVE HUMIDITY IN PERCENT
  WIND   - DIRECTION AND SPEED IN MPH
  PRES   - MEAN SEA LEVEL PRESSURE IN INCHES OF HG
  WCI    - WIND CHILL INDEX
  VSB    - VISIBILITY IN MILES
  HX     - HEAT INDEX
  TC     - TEMPERATURE IN CELSIUS
  VRB    - VARIABLE WIND DIRECTION
  N/A    - NOT AVAILABLE




USA.gov is the U.S. government's official web portal to all federal, state and local government web resources and services.